Weather in Krutogorovsky

Russia / Kamchatka Krai     55°01′36″N   155°35′28″E
temp.,
°C
wind,
m/s
gust,
m/s
humid.,
%
clouds,
%
prec.,
mm/h
press.,
hPa
HPBL,
m
28 february, sun
sun2800:00−12nne4689100 0.0 1011126
03:00−13n579649 0.0 1009143
06:00−14n469525 0.0 1008124
09:00−12n459192 0.0 1008124
12:00−9n458296 0.0 1006251
15:00−7nnw4585100 0.0 1004352
18:00−7nnw4593100 0.1 1001264
21:00−8nnw3494100 0.1 1001154
1 march, mon
mon100:00−8nw3493100 0.1 999113
03:00−11n4595100 0.0 998125
06:00−12n3493100 0.1 998132
09:00−14nne4695100 0.0 998151
12:00−13nne4593100 0.0 999231
15:00−11n4489100 0.0 999345
18:00−12n5692100 0.3 1000374
21:00−14n4692100 0.1 1003284
2 march, tue
tue200:00−15n4594100 0.2 1005327
03:00−15nne3594100 0.3 1008273
06:00−16e2395100 0.3 101190
09:00−15se4697100 0.1 1014157
12:00−11sse71093100 0.3 1016351
15:00−7wsw91170100 0.9 10181344
18:00−8wsw71074100 1.1 1020733
21:00−9sw6979100 0.3 1024389
3 march, wed
wed300:00−9sw5883100 0.5 1026563
03:00−11se4487100 0.2 1024294
06:00−12e4688100 0.3 1020169
09:00−12ne81290100 0.5 1013507
12:00−11ne111495100 4.7 1002496
15:00−8ne81095100 9.3 992316
18:00−5ene5896100 18.3 982387
21:00−1se71797100 14.4 973688
4 march, thu
thu400:00−1sse122097100 20.4 971938
03:00−9w182388100 3.4 9831536
06:00−10w172179100 4.3 9941674
09:00−12w141880100 0.3 9981605
12:00−11w141980100 0.5 10022142
15:00−9wsw141875100 0.4 10032097
18:00−7wsw121685100 0.9 10011408
21:00−6wsw81293100 1.1 999813